Darstellungsparameter: Aktuell verwendete Einstellungen:
Skalierung der Graphiken ... ?
xyx+y,   Skalierungsfaktor:      Skalierung: Modus: x, Faktor: 1
Darstellungszeitraum ... ?
Vom - - bis: - -   Zeitraum: 03.08.2019 - 02.08.2020
Min/Max/Avg-Anzeige ... ?
Zeige MMA aktuell
Zeige MMA Monat
Zeige MMA alles
Zeige --A aktuell
Zeige --A Monat
Zeige --A alles
Keine MMA-Anzeige
MMA:
Keine MMA-Graphiken
MMA-Basis: 03.08.2019 - 02.08.2020
Quicknavigation für Darstellung... ?
Tage:      1T, 2T, 3T, 5T -1T -2T -3T -5T +1T +2T +3T +5T
Wochen: 1W, 2W, 3W -1W -2W -3W +1W +2W +3W
Monate: 1M, 3M, 6M -1M -3M -6M +1M +3M +6M
Jahre:    1J, 3J, 5J, 10J -1J -3J -5J -10J +1J +3J +5J +10J
Nutze für die Darstellung ... ?
Originaldaten oder ...
Mittelwerte Minima Maxima auf...
Stundenbasis Tagesbasis Wochenbasis
Monatsbasis Jahresbasis      Datenbasis: Maxima auf Tagesbasis
Darstellen als:
Statistik (Auto) Statistik J:M      Darstellung:
Zur Graphik,    zurück zur Übersicht aller Sensoren.
 
Tabellarische Datenbersicht: ?
 
Sensor: Nr:Datum:Temp:Feuchte:
Aussen-T/F 1 03-08-2019 00:00:00 25.7 C 88 %
2 04-08-2019 00:00:00 31.3 C 95 %
3 05-08-2019 00:00:00 29.1 C 96 %
4 06-08-2019 00:00:00 26.8 C 95 %
5 07-08-2019 00:00:00 24.3 C 97 %
6 08-08-2019 00:00:00 27.9 C 95 %
7 09-08-2019 00:00:00 27.6 C 96 %
8 10-08-2019 00:00:00 26.8 C 97 %
9 11-08-2019 00:00:00 23.3 C 94 %
10 12-08-2019 00:00:00 24 C 96 %
11 13-08-2019 00:00:00 22.4 C 96 %
12 14-08-2019 00:00:00 24.8 C 97 %
13 15-08-2019 00:00:00 21.8 C 96 %
14 16-08-2019 00:00:00 24.9 C 97 %
15 17-08-2019 00:00:00 21.4 C 95 %
16 18-08-2019 00:00:00 25.3 C 98 %
17 19-08-2019 00:00:00 24.9 C 98 %
18 20-08-2019 00:00:00 21.6 C 96 %
19 21-08-2019 00:00:00 25.1 C 97 %
20 22-08-2019 00:00:00 28.5 C 96 %
21 23-08-2019 00:00:00 29.7 C 95 %
22 24-08-2019 00:00:00 31.3 C 95 %
23 25-08-2019 00:00:00 32.8 C 92 %
24 26-08-2019 00:00:00 31.6 C 96 %
25 27-08-2019 00:00:00 34.3 C 97 %
Sensor: Nr:Datum:Temp:Feuchte:
Aussen-T/F 26 28-08-2019 00:00:00 32.3 C 96 %
27 29-08-2019 00:00:00 28.1 C 90 %
28 30-08-2019 00:00:00 30.4 C 95 %
29 31-08-2019 00:00:00 34.3 C 93 %
30 01-09-2019 00:00:00 21.6 C 92 %
31 02-09-2019 00:00:00 23.5 C 93 %
32 03-09-2019 00:00:00 24.3 C 90 %
33 04-09-2019 00:00:00 27.3 C 96 %
34 05-09-2019 00:00:00 19.7 C 91 %
35 06-09-2019 00:00:00 22.7 C 96 %
36 07-09-2019 00:00:00 15.8 C 95 %
37 08-09-2019 00:00:00 16.2 C 97 %
38 09-09-2019 00:00:00 16.6 C 97 %
39 10-09-2019 00:00:00 20.4 C 97 %
40 11-09-2019 00:00:00 20.9 C 97 %
41 12-09-2019 00:00:00 25.3 C 89 %
42 13-09-2019 00:00:00 21.3 C 95 %
43 14-09-2019 00:00:00 24.8 C 97 %
44 15-09-2019 00:00:00 26.8 C 96 %
45 16-09-2019 00:00:00 22.3 C 92 %
46 17-09-2019 00:00:00 18.7 C 92 %
47 18-09-2019 00:00:00 18.7 C 95 %
48 19-09-2019 00:00:00 18.5 C 96 %
49 20-09-2019 00:00:00 21.1 C 95 %
50 21-09-2019 00:00:00 25.5 C 94 %
Sensor: Nr:Datum:Temp:Feuchte:
Aussen-T/F 51 22-09-2019 00:00:00 25 C 94 %
52 23-09-2019 00:00:00 20.7 C 96 %
53 24-09-2019 00:00:00 19.3 C 97 %
54 25-09-2019 00:00:00 17.9 C 97 %
55 26-09-2019 00:00:00 19.1 C 97 %
56 27-09-2019 00:00:00 19.2 C 96 %
57 28-09-2019 00:00:00 18.2 C 96 %
58 29-09-2019 00:00:00 18.9 C 93 %
59 30-09-2019 00:00:00 19 C 93 %
60 01-10-2019 00:00:00 19.4 C 96 %
61 02-10-2019 00:00:00 15.3 C 95 %
62 03-10-2019 00:00:00 12.7 C 96 %
63 04-10-2019 00:00:00 14.2 C 97 %
64 05-10-2019 00:00:00 12.5 C 94 %
65 06-10-2019 00:00:00 9.7 C 97 %
66 07-10-2019 00:00:00 12.4 C 97 %
67 08-10-2019 00:00:00 14.7 C 97 %
68 09-10-2019 00:00:00 14.1 C 98 %
69 10-10-2019 00:00:00 15.7 C 95 %
70 11-10-2019 00:00:00 16.8 C 97 %
71 12-10-2019 00:00:00 20.1 C 98 %
72 13-10-2019 00:00:00 22.4 C 98 %
73 14-10-2019 00:00:00 21.7 C 97 %
74 15-10-2019 00:00:00 18.2 C 98 %
75 16-10-2019 00:00:00 14.7 C 97 %
Sensor: Nr:Datum:Temp:Feuchte:
Aussen-T/F 76 17-10-2019 00:00:00 16.9 C 97 %
77 18-10-2019 00:00:00 16.7 C 98 %
78 19-10-2019 00:00:00 17.4 C 96 %
79 20-10-2019 00:00:00 15 C 98 %
80 21-10-2019 00:00:00 17 C 99 %
81 22-10-2019 00:00:00 15.1 C 96 %
82 23-10-2019 00:00:00 15.1 C 98 %
83 24-10-2019 00:00:00 18.9 C 98 %
84 25-10-2019 00:00:00 16.6 C 96 %
85 26-10-2019 00:00:00 16.9 C 97 %
86 27-10-2019 00:00:00 14.5 C 97 %
87 28-10-2019 00:00:00 8.2 C 98 %
88 29-10-2019 00:00:00 11.1 C 96 %
89 30-10-2019 00:00:00 7.8 C 98 %
90 31-10-2019 00:00:00 8 C 98 %
91 01-11-2019 00:00:00 10.7 C 98 %
92 02-11-2019 00:00:00 16.2 C 98 %
93 03-11-2019 00:00:00 15.7 C 97 %
94 04-11-2019 00:00:00 12.9 C 97 %
95 05-11-2019 00:00:00 12.1 C 96 %
96 06-11-2019 00:00:00 10.7 C 97 %
97 07-11-2019 00:00:00 9.9 C 98 %
98 08-11-2019 00:00:00 7.8 C 98 %
99 09-11-2019 00:00:00 7.2 C 98 %
100 10-11-2019 00:00:00 4.7 C 98 %
Sensor: Nr:Datum:Temp:Feuchte:
Aussen-T/F 101 11-11-2019 00:00:00 6.5 C 96 %
102 12-11-2019 00:00:00 8.3 C 96 %
103 13-11-2019 00:00:00 6.9 C 93 %
104 14-11-2019 00:00:00 9.1 C 95 %
105 15-11-2019 00:00:00 7.9 C 94 %
106 16-11-2019 00:00:00 4.8 C 97 %
107 17-11-2019 00:00:00 5.2 C 98 %
108 18-11-2019 00:00:00 5.4 C 98 %
109 19-11-2019 00:00:00 6.7 C 97 %
110 20-11-2019 00:00:00 5.3 C 98 %
111 21-11-2019 00:00:00 5.1 C 97 %
112 22-11-2019 00:00:00 6.2 C 98 %
113 23-11-2019 00:00:00 8.7 C 97 %
114 24-11-2019 00:00:00 5.5 C 98 %
115 25-11-2019 00:00:00 7.3 C 98 %
116 26-11-2019 00:00:00 11.4 C 98 %
117 27-11-2019 00:00:00 13 C 97 %
118 28-11-2019 00:00:00 12.2 C 92 %
119 29-11-2019 00:00:00 9.7 C 96 %
120 30-11-2019 00:00:00 2.7 C 98 %
121 01-12-2019 00:00:00 4.3 C 98 %
122 02-12-2019 00:00:00 5.2 C 96 %
123 03-12-2019 00:00:00 6.7 C 97 %
124 04-12-2019 00:00:00 3.2 C 97 %
125 05-12-2019 00:00:00 0.7 C 98 %
Sensor: Nr:Datum:Temp:Feuchte:
Aussen-T/F 126 06-12-2019 00:00:00 7.5 C 98 %
127 07-12-2019 00:00:00 10.2 C 94 %
128 08-12-2019 00:00:00 12.1 C 93 %
129 09-12-2019 00:00:00 8.9 C 93 %
130 10-12-2019 00:00:00 5.4 C 95 %
131 11-12-2019 00:00:00 4.8 C 97 %
132 12-12-2019 00:00:00 5.3 C 98 %
133 13-12-2019 00:00:00 7.1 C 97 %
134 14-12-2019 00:00:00 9 C 97 %
135 15-12-2019 00:00:00 11.2 C 96 %
136 16-12-2019 00:00:00 10.5 C 98 %
137 17-12-2019 00:00:00 14.3 C 96 %
138 18-12-2019 00:00:00 11.7 C 97 %
139 19-12-2019 00:00:00 9.9 C 98 %
140 20-12-2019 00:00:00 10.3 C 97 %
141 21-12-2019 00:00:00 9.3 C 97 %
142 22-12-2019 00:00:00 11.1 C 95 %
143 23-12-2019 00:00:00 9.4 C 92 %
144 24-12-2019 00:00:00 10.4 C 95 %
145 25-12-2019 00:00:00 8.8 C 95 %
146 26-12-2019 00:00:00 6.3 C 97 %
147 27-12-2019 00:00:00 6.4 C 97 %
148 28-12-2019 00:00:00 1.4 C 97 %
149 29-12-2019 00:00:00 2.3 C 97 %
150 30-12-2019 00:00:00 2.1 C 97 %
Sensor: Nr:Datum:Temp:Feuchte:
Aussen-T/F 151 31-12-2019 00:00:00 3.6 C 97 %
152 01-01-2020 00:00:00 3.4 C 97 %
153 02-01-2020 00:00:00 3.7 C 97 %
154 03-01-2020 00:00:00 9.7 C 97 %
155 04-01-2020 00:00:00 7.6 C 96 %
156 05-01-2020 00:00:00 7.3 C 96 %
157 06-01-2020 00:00:00 5.2 C 97 %
158 07-01-2020 00:00:00 7.4 C 97 %
159 08-01-2020 00:00:00 10.3 C 96 %
160 09-01-2020 00:00:00 13.4 C 98 %
161 10-01-2020 00:00:00 10.8 C 94 %
162 11-01-2020 00:00:00 7.3 C 96 %
163 12-01-2020 00:00:00 7.2 C 94 %
164 13-01-2020 00:00:00 8.3 C 96 %
165 14-01-2020 00:00:00 12.2 C 93 %
166 15-01-2020 00:00:00 13.3 C 92 %
167 16-01-2020 00:00:00 9.6 C 98 %
168 17-01-2020 00:00:00 9.9 C 98 %
169 18-01-2020 00:00:00 6.9 C 94 %
170 19-01-2020 00:00:00 5.1 C 96 %
171 20-01-2020 00:00:00 5.8 C 98 %
172 21-01-2020 00:00:00 0.1 C 97 %
173 22-01-2020 00:00:00 0.8 C 98 %
174 23-01-2020 00:00:00 2.7 C 98 %
175 24-01-2020 00:00:00 2.7 C 97 %
Sensor: Nr:Datum:Temp:Feuchte:
Aussen-T/F 176 25-01-2020 00:00:00 4.6 C 96 %
177 26-01-2020 00:00:00 6.5 C 97 %
178 27-01-2020 00:00:00 9.4 C 98 %
179 28-01-2020 00:00:00 8.2 C 94 %
180 29-01-2020 00:00:00 7.6 C 93 %
181 30-01-2020 00:00:00 11.3 C 91 %
182 31-01-2020 00:00:00 14.6 C 90 %
183 01-02-2020 00:00:00 12.8 C 95 %
184 02-02-2020 00:00:00 14.3 C 98 %
185 03-02-2020 00:00:00 12.4 C 95 %
186 04-02-2020 00:00:00 6.9 C 95 %
187 05-02-2020 00:00:00 6.6 C 95 %
188 06-02-2020 00:00:00 5.9 C 97 %
189 07-02-2020 00:00:00 4.2 C 98 %
190 08-02-2020 00:00:00 5.4 C 97 %
191 09-02-2020 00:00:00 13 C 98 %
192 10-02-2020 00:00:00 11.9 C 96 %
193 11-02-2020 00:00:00 7.9 C 88 %
194 12-02-2020 00:00:00 7.4 C 93 %
195 13-02-2020 00:00:00 7 C 97 %
196 14-02-2020 00:00:00 8.4 C 96 %
197 15-02-2020 00:00:00 11.8 C 98 %
198 16-02-2020 00:00:00 18.1 C 86 %
199 17-02-2020 00:00:00 11.2 C 94 %
200 18-02-2020 00:00:00 8.8 C 86 %
Sensor: Nr:Datum:Temp:Feuchte:
Aussen-T/F 201 19-02-2020 00:00:00 8.3 C 88 %
202 20-02-2020 00:00:00 10.3 C 90 %
203 21-02-2020 00:00:00 8.4 C 90 %
204 22-02-2020 00:00:00 11 C 87 %
205 23-02-2020 00:00:00 12.2 C 94 %
206 24-02-2020 00:00:00 12.1 C 96 %
207 25-02-2020 00:00:00 11.1 C 94 %
208 26-02-2020 00:00:00 6.7 C 87 %
209 27-02-2020 00:00:00 5.6 C 96 %
210 28-02-2020 00:00:00 7.6 C 95 %
211 29-02-2020 00:00:00 15.3 C 95 %
212 01-03-2020 00:00:00 11.1 C 96 %
213 02-03-2020 00:00:00 12.3 C 97 %
214 03-03-2020 00:00:00 8 C 96 %
215 04-03-2020 00:00:00 9.8 C 94 %
216 05-03-2020 00:00:00 7.4 C 97 %
217 06-03-2020 00:00:00 7.4 C 97 %
218 07-03-2020 00:00:00 10.2 C 91 %
219 08-03-2020 00:00:00 12.7 C 88 %
220 09-03-2020 00:00:00 11.8 C 94 %
221 10-03-2020 00:00:00 13.4 C 94 %
222 11-03-2020 00:00:00 16 C 91 %
223 12-03-2020 00:00:00 14.1 C 91 %
224 13-03-2020 00:00:00 10.4 C 88 %
225 14-03-2020 00:00:00 12.3 C 96 %
Sensor: Nr:Datum:Temp:Feuchte:
Aussen-T/F 226 15-03-2020 00:00:00 16.7 C 91 %
227 16-03-2020 00:00:00 19.1 C 95 %
228 17-03-2020 00:00:00 18.4 C 93 %
229 18-03-2020 00:00:00 17.2 C 98 %
230 19-03-2020 00:00:00 18.1 C 90 %
231 20-03-2020 00:00:00 14.9 C 96 %
232 21-03-2020 00:00:00 10.1 C 95 %
233 22-03-2020 00:00:00 11.3 C 78 %
234 23-03-2020 00:00:00 10.5 C 80 %
235 24-03-2020 00:00:00 11.4 C 83 %
236 25-03-2020 00:00:00 12.6 C 81 %
237 26-03-2020 00:00:00 12.2 C 75 %
238 27-03-2020 00:00:00 17 C 88 %
239 28-03-2020 00:00:00 18.6 C 94 %
240 29-03-2020 00:00:00 7.6 C 87 %
241 30-03-2020 00:00:00 9.9 C 85 %
242 31-03-2020 00:00:00 11.3 C 93 %
243 01-04-2020 00:00:00 13.3 C 87 %
244 02-04-2020 00:00:00 14 C 88 %
245 03-04-2020 00:00:00 12.3 C 84 %
246 04-04-2020 00:00:00 16.5 C 92 %
247 05-04-2020 00:00:00 21.2 C 95 %
248 06-04-2020 00:00:00 24.3 C 91 %
249 07-04-2020 00:00:00 24.1 C 91 %
250 08-04-2020 00:00:00 25.7 C 96 %
Sensor: Nr:Datum:Temp:Feuchte:
Aussen-T/F 251 09-04-2020 00:00:00 24.9 C 88 %
252 10-04-2020 00:00:00 24.3 C 94 %
253 11-04-2020 00:00:00 24.9 C 79 %
254 12-04-2020 00:00:00 24.9 C 89 %
255 13-04-2020 00:00:00 13.1 C 88 %
256 14-04-2020 00:00:00 13 C 86 %
257 15-04-2020 00:00:00 20.9 C 92 %
258 16-04-2020 00:00:00 25.2 C 92 %
259 17-04-2020 00:00:00 26.2 C 95 %
260 18-04-2020 00:00:00 21.5 C 93 %
261 19-04-2020 00:00:00 18.1 C 96 %
262 20-04-2020 00:00:00 20.6 C 72 %
263 21-04-2020 00:00:00 21.8 C 70 %
264 22-04-2020 00:00:00 23.1 C 80 %
265 23-04-2020 00:00:00 25.8 C 87 %
266 24-04-2020 00:00:00 23.2 C 88 %
267 25-04-2020 00:00:00 19.3 C 84 %
268 26-04-2020 00:00:00 23 C 95 %
269 27-04-2020 00:00:00 23.6 C 92 %
270 28-04-2020 00:00:00 18.2 C 94 %
271 29-04-2020 00:00:00 19.2 C 93 %
272 30-04-2020 00:00:00 16.3 C 96 %
273 01-05-2020 00:00:00 16.2 C 96 %
274 02-05-2020 00:00:00 14.7 C 94 %
275 03-05-2020 00:00:00 17.8 C 97 %
Sensor: Nr:Datum:Temp:Feuchte:
Aussen-T/F 276 04-05-2020 00:00:00 15.1 C 93 %
277 05-05-2020 00:00:00 18.7 C 96 %
278 06-05-2020 00:00:00 20.4 C 94 %
279 07-05-2020 00:00:00 23.8 C 94 %
280 08-05-2020 00:00:00 25.5 C 93 %
281 09-05-2020 00:00:00 22.9 C 90 %
282 10-05-2020 00:00:00 22.6 C 96 %
283 11-05-2020 00:00:00 16.1 C 94 %
284 12-05-2020 00:00:00 15.3 C 91 %
285 13-05-2020 00:00:00 15.3 C 93 %
286 14-05-2020 00:00:00 15.4 C 90 %
287 15-05-2020 00:00:00 19 C 91 %
288 16-05-2020 00:00:00 20.9 C 93 %
289 17-05-2020 00:00:00 21.2 C 89 %
290 18-05-2020 00:00:00 26.2 C 92 %
291 19-05-2020 00:00:00 25.8 C 93 %
292 20-05-2020 00:00:00 25.1 C 94 %
293 21-05-2020 00:00:00 29.2 C 95 %
294 22-05-2020 00:00:00 26.8 C 94 %
295 23-05-2020 00:00:00 16.9 C 97 %
296 24-05-2020 00:00:00 17.8 C 89 %
297 25-05-2020 00:00:00 21.2 C 89 %
298 26-05-2020 00:00:00 23.6 C 96 %
299 27-05-2020 00:00:00 26.4 C 95 %
300 28-05-2020 00:00:00 24.1 C 79 %
Sensor: Nr:Datum:Temp:Feuchte:
Aussen-T/F 301 29-05-2020 00:00:00 23.8 C 91 %
302 30-05-2020 00:00:00 22.9 C 86 %
303 31-05-2020 00:00:00 22.3 C 89 %
304 01-06-2020 00:00:00 27.5 C 92 %
305 02-06-2020 00:00:00 31 C 89 %
306 03-06-2020 00:00:00 27.3 C 87 %
307 04-06-2020 00:00:00 18.4 C 97 %
308 05-06-2020 00:00:00 14.9 C 96 %
309 06-06-2020 00:00:00 18.9 C 93 %
310 07-06-2020 00:00:00 20.1 C 94 %
311 08-06-2020 00:00:00 21.2 C 95 %
312 09-06-2020 00:00:00 19.3 C 96 %
313 10-06-2020 00:00:00 20.1 C 97 %
314 11-06-2020 00:00:00 19.6 C 96 %
315 12-06-2020 00:00:00 30.2 C 97 %
316 13-06-2020 00:00:00 28.8 C 89 %
317 14-06-2020 00:00:00 21.6 C 90 %
318 15-06-2020 00:00:00 21.6 C 90 %
319 16-06-2020 00:00:00 21.7 C 96 %
320 17-06-2020 00:00:00 24.2 C 97 %
321 18-06-2020 00:00:00 25.4 C 96 %
322 19-06-2020 00:00:00 23.4 C 97 %
323 20-06-2020 00:00:00 23.4 C 98 %
324 21-06-2020 00:00:00 28.2 C 97 %
325 22-06-2020 00:00:00 25.3 C 90 %
Sensor: Nr:Datum:Temp:Feuchte:
Aussen-T/F 326 23-06-2020 00:00:00 29.8 C 95 %
327 24-06-2020 00:00:00 29.3 C 93 %
328 25-06-2020 00:00:00 28.3 C 89 %
329 26-06-2020 00:00:00 32.1 C 94 %
330 27-06-2020 00:00:00 29.8 C 93 %
331 28-06-2020 00:00:00 22.1 C 91 %
332 29-06-2020 00:00:00 24.5 C 95 %
333 30-06-2020 00:00:00 23.9 C 93 %
334 01-07-2020 00:00:00 26.4 C 91 %
335 02-07-2020 00:00:00 24 C 97 %
336 03-07-2020 00:00:00 25.3 C 96 %
337 04-07-2020 00:00:00 25.4 C 90 %
338 05-07-2020 00:00:00 26.3 C 81 %
339 06-07-2020 00:00:00 20.8 C 86 %
340 07-07-2020 00:00:00 24.4 C 94 %
341 08-07-2020 00:00:00 18.1 C 95 %
342 09-07-2020 00:00:00 28.6 C 96 %
343 10-07-2020 00:00:00 22.2 C 94 %
344 11-07-2020 00:00:00 23 C 96 %
345 12-07-2020 00:00:00 25.7 C 95 %
346 13-07-2020 00:00:00 29.3 C 92 %
347 14-07-2020 00:00:00 25.9 C 90 %
348 15-07-2020 00:00:00 22 C 95 %
349 16-07-2020 00:00:00 18.3 C 95 %
350 17-07-2020 00:00:00 25.2 C 97 %
Sensor: Nr:Datum:Temp:Feuchte:
Aussen-T/F 351 18-07-2020 00:00:00 28.3 C 96 %
352 19-07-2020 00:00:00 31.8 C 91 %
353 20-07-2020 00:00:00 24.6 C 92 %
354 21-07-2020 00:00:00 25.1 C 87 %
355 22-07-2020 00:00:00 26.4 C 93 %
356 23-07-2020 00:00:00 28.5 C 90 %
357 24-07-2020 00:00:00 26.4 C 79 %
358 25-07-2020 00:00:00 27.4 C 92 %
359 26-07-2020 00:00:00 27.2 C 94 %
360 27-07-2020 00:00:00 32.2 C 93 %
361 28-07-2020 00:00:00 27.9 C 71 %
362 29-07-2020 00:00:00 27.4 C 89 %
363 30-07-2020 00:00:00 31.9 C 90 %
364 31-07-2020 00:00:00 37.9 C 85 %
365 01-08-2020 00:00:00 32.4 C 96 %
366 02-08-2020 00:00:00 26.7 C 97 %

Maximal/Minimal-Werte vom 03.08.2019 - 02.08.2020

Sensor Min Max Avg
Temp
(Aussen-T/F)
-3.6 °C
29-12-2019  07:25:00
37.9 °C
31-07-2020  17:55:00
11.58 °C
Feuchte
(Aussen-T/F)
21 %
31-07-2020  17:15:00
99 %
21-10-2019  10:45:00
80.49 %

Warnung:
When displaying minima or maxima values for days, weeks, months or years no virtual sensors will be displayed.



Die Daten stammen von einer Davis Vantage Pro 2 Wetter-Station und werden unter Linux mit der Software wview2wettercgi und aufbereitet. Alle Angaben erfolgen ohne Gewähr für ihre Vollständigkeit oder Richtigkeit.
Kontakt: Rainer Krienke krienke@uni-koblenz.de . Meine Webseiten an der Uni Koblenz oder privat.
Version: $Revision: 0.78 $